Location: Houhaj�rvi
(61.2833°N, 23.0000°E)
Time: 04:50:45
(UTC+00:00)

NOSS 3-2 (A) - Pass Details

Date: 27 February 2020
Orbit: 807 x 1401 km, 63.4° (Epoch: 25 February)

Event Time Altitude Azimuth Distance (km) Brightness Sun altitude
Rises 17:05:49 0° 296° (WNW) 3,767 7.9 -10.3°
Reaches altitude 10° 17:08:16 10° 295° (WNW) 2,893 7.2 -10.6°
Maximum altitude 17:15:12 77° 211° (SSW) 1,216 4.1 -11.5°
Drops below altitude 10° 17:23:12 10° 128° (SE) 3,312 5.8 -12.4°
Enters shadow 17:23:31 - 128° (SE) 3,421 5.8 -12.4°
